owner,sensor,date,latitude,longitude,vertical_datum,wind_speed,wind_to_direction,wind_speed_of_gust,qcFlag 
DISL,ioos:station:DISL:MHPA:1,2012-01-01T06:30:00Z,30.6671,-87.9365,8.5,2.41,170.9,-9999.0,'1111122,1111122,1111122' 
DISL,ioos:station:DISL:MHPA:1,2012-01-01T07:00:00Z,30.6671,-87.9365,8.5,3.0,165.2,-9999.0,'1111122,1111122,1111122' 
DISL,ioos:station:DISL:MHPA:1,2012-01-01T07:30:00Z,30.6671,-87.9365,8.5,2.62,181.9,-9999.0,'1111122,1111122,1111122' 
DISL,ioos:station:DISL:MHPA:1,2012-01-01T08:00:00Z,30.6671,-87.9365,8.5,1.78,171.7,-9999.0,'1111122,1111122,1111122' 
DISL,ioos:station:DISL:MHPA:1,2012-01-01T08:30:00Z,30.6671,-87.9365,8.5,2.91,158.7,-9999.0,'1111122,1111122,1111122' 
DISL,ioos:station:DISL:MHPA:1,2012-01-01T09:00:00Z,30.6671,-87.9365,8.5,1.7,164.8,-9999.0,'1111122,1111122,1111122' 
DISL,ioos:station:DISL:MHPA:1,2012-01-01T09:30:00Z,30.6671,-87.9365,8.5,1.54,234.8,-9999.0,'1111122,1111122,1111122' 
DISL,ioos:station:DISL:MHPA:1,2012-01-01T10:00:00Z,30.6671,-87.9365,8.5,0.83,204.9,-9999.0,'1111122,1111122,1111122' 
DISL,ioos:station:DISL:MHPA:1,2012-01-01T10:30:00Z,30.6671,-87.9365,8.5,1.09,235.7,-9999.0,'1111122,1111122,1111122' 
DISL,ioos:station:DISL:MHPA:1,2012-01-01T11:00:00Z,30.6671,-87.9365,8.5,0.48,205.6,-9999.0,'1111122,1111122,1111122' 
DISL,ioos:station:DISL:MHPA:1,2012-01-01T11:30:00Z,30.6671,-87.9365,8.5,0.81,288.4,-9999.0,'1111122,1111122,1111122' 
DISL,ioos:station:DISL:MHPA:1,2012-01-01T12:00:00Z,30.6671,-87.9365,8.5,1.44,151.9,-9999.0,'1111122,1111122,1111122' 
DISL,ioos:station:DISL:MHPA:1,2012-01-01T12:30:00Z,30.6671,-87.9365,8.5,1.83,141.9,-9999.0,'1111122,1111122,1111122' 
DISL,ioos:station:DISL:MHPA:1,2012-01-01T13:00:00Z,30.6671,-87.9365,8.5,0.9,157.2,-9999.0,'1111122,1111122,1111122' 
DISL,ioos:station:DISL:MHPA:1,2012-01-01T13:30:00Z,30.6671,-87.9365,8.5,0.95,152.5,-9999.0,'1111122,1111122,1111122' 
DISL,ioos:station:DISL:MHPA:1,2012-01-01T14:00:00Z,30.6671,-87.9365,8.5,1.91,150.0,-9999.0,'1111122,1111122,1111122' 
DISL,ioos:station:DISL:MHPA:1,2012-01-01T14:30:00Z,30.6671,-87.9365,8.5,3.25,168.1,-9999.0,'1111122,1111122,1111122' 
DISL,ioos:station:DISL:MHPA:1,2012-01-01T15:00:00Z,30.6671,-87.9365,8.5,3.51,163.7,-9999.0,'1111122,1111122,1111122' 
DISL,ioos:station:DISL:MHPA:1,2012-01-01T15:30:00Z,30.6671,-87.9365,8.5,3.41,166.3,-9999.0,'1111122,1111122,1111122' 
DISL,ioos:station:DISL:MHPA:1,2012-01-01T16:00:00Z,30.6671,-87.9365,8.5,4.32,169.6,-9999.0,'1111122,1111122,1111122' 
DISL,ioos:station:DISL:MHPA:1,2012-01-01T16:30:00Z,30.6671,-87.9365,8.5,4.09,173.1,-9999.0,'1111122,1111122,1111122' 
DISL,ioos:station:DISL:MHPA:1,2012-01-01T17:00:00Z,30.6671,-87.9365,8.5,3.56,179.0,-9999.0,'1111122,1111122,1111122' 
DISL,ioos:station:DISL:MHPA:1,2012-01-01T17:30:00Z,30.6671,-87.9365,8.5,3.9,170.2,-9999.0,'1111122,1111122,1111122' 
DISL,ioos:station:DISL:MHPA:1,2012-01-01T18:00:00Z,30.6671,-87.9365,8.5,2.92,174.5,-9999.0,'1111122,1111122,1111122' 
DISL,ioos:station:DISL:MHPA:1,2012-01-01T18:30:00Z,30.6671,-87.9365,8.5,1.81,173.2,-9999.0,'1111122,1111122,1111122' 
DISL,ioos:station:DISL:MHPA:1,2012-01-01T19:00:00Z,30.6671,-87.9365,8.5,4.41,277.6,-9999.0,'1111122,1111122,1111122' 
DISL,ioos:station:DISL:MHPA:1,2012-01-01T19:30:00Z,30.6671,-87.9365,8.5,3.25,268.4,-9999.0,'1111122,1111122,1111122' 
DISL,ioos:station:DISL:MHPA:1,2012-01-01T20:00:00Z,30.6671,-87.9365,8.5,2.45,236.1,-9999.0,'1111122,1111122,1111122' 
DISL,ioos:station:DISL:MHPA:1,2012-01-01T20:30:00Z,30.6671,-87.9365,8.5,1.95,215.9,-9999.0,'1111122,1111122,1111122' 
DISL,ioos:station:DISL:MHPA:1,2012-01-01T21:00:00Z,30.6671,-87.9365,8.5,0.62,180.8,-9999.0,'1111122,1111122,1111122' 
DISL,ioos:station:DISL:MHPA:1,2012-01-01T21:30:00Z,30.6671,-87.9365,8.5,4.28,302.4,-9999.0,'1111122,1111122,1111122' 
DISL,ioos:station:DISL:MHPA:1,2012-01-01T22:00:00Z,30.6671,-87.9365,8.5,4.48,317.9,-9999.0,'1111122,1111122,1111122' 
DISL,ioos:station:DISL:MHPA:1,2012-01-01T22:30:00Z,30.6671,-87.9365,8.5,4.43,313.0,-9999.0,'1111122,1111122,1111122' 
DISL,ioos:station:DISL:MHPA:1,2012-01-01T23:00:00Z,30.6671,-87.9365,8.5,4.84,322.4,-9999.0,'1111122,1111122,1111122' 
DISL,ioos:station:DISL:MHPA:1,2012-01-01T23:30:00Z,30.6671,-87.9365,8.5,4.65,324.4,-9999.0,'1111122,1111122,1111122' 
DISL,ioos:station:DISL:MHPA:1,2012-01-02T00:00:00Z,30.6671,-87.9365,8.5,4.65,333.6,-9999.0,'1111122,1111122,1111122' 
DISL,ioos:station:DISL:MHPA:1,2012-01-02T00:30:00Z,30.6671,-87.9365,8.5,4.93,340.5,-9999.0,'1111122,1111122,1111122' 
DISL,ioos:station:DISL:MHPA:1,2012-01-02T01:00:00Z,30.6671,-87.9365,8.5,4.37,334.8,-9999.0,'1111122,1111122,1111122' 
DISL,ioos:station:DISL:MHPA:1,2012-01-02T01:30:00Z,30.6671,-87.9365,8.5,4.26,343.2,-9999.0,'1111122,1111122,1111122' 
DISL,ioos:station:DISL:MHPA:1,2012-01-02T02:00:00Z,30.6671,-87.9365,8.5,4.23,337.4,-9999.0,'1111122,1111122,1111122' 
DISL,ioos:station:DISL:MHPA:1,2012-01-02T02:30:00Z,30.6671,-87.9365,8.5,4.52,340.0,-9999.0,'1111122,1111122,1111122' 
DISL,ioos:station:DISL:MHPA:1,2012-01-02T03:00:00Z,30.6671,-87.9365,8.5,4.8,333.9,-9999.0,'1111122,1111122,1111122' 
DISL,ioos:station:DISL:MHPA:1,2012-01-02T03:30:00Z,30.6671,-87.9365,8.5,4.3,340.7,-9999.0,'1111122,1111122,1111122' 
DISL,ioos:station:DISL:MHPA:1,2012-01-02T04:00:00Z,30.6671,-87.9365,8.5,4.69,337.9,-9999.0,'1111122,1111122,1111122' 
DISL,ioos:station:DISL:MHPA:1,2012-01-02T04:30:00Z,30.6671,-87.9365,8.5,3.57,336.1,-9999.0,'1111122,1111122,1111122' 
DISL,ioos:station:DISL:MHPA:1,2012-01-02T05:00:00Z,30.6671,-87.9365,8.5,4.03,337.4,-9999.0,'1111122,1111122,1111122' 
DISL,ioos:station:DISL:MHPA:1,2012-01-02T05:30:00Z,30.6671,-87.9365,8.5,4.09,341.3,-9999.0,'1111122,1111122,1111122' 
DISL,ioos:station:DISL:MHPA:1,2012-01-02T06:00:00Z,30.6671,-87.9365,8.5,5.02,348.0,-9999.0,'1111122,1111122,1111122' 
DISL,ioos:station:DISL:MHPA:1,2012-01-02T06:30:00Z,30.6671,-87.9365,8.5,5.76,356.3,-9999.0,'1111122,1111122,1111122' 
DISL,ioos:station:DISL:MHPA:1,2012-01-02T07:00:00Z,30.6671,-87.9365,8.5,5.57,347.4,-9999.0,'1111122,1111122,1111122' 
DISL,ioos:station:DISL:MHPA:1,2012-01-02T07:30:00Z,30.6671,-87.9365,8.5,4.6,356.7,-9999.0,'1111122,1111122,1111122' 
DISL,ioos:station:DISL:MHPA:1,2012-01-02T08:00:00Z,30.6671,-87.9365,8.5,3.83,345.1,-9999.0,'1111122,1111122,1111122' 
DISL,ioos:station:DISL:MHPA:1,2012-01-02T08:30:00Z,30.6671,-87.9365,8.5,2.76,340.1,-9999.0,'1111122,1111122,1111122' 
DISL,ioos:station:DISL:MHPA:1,2012-01-02T09:00:00Z,30.6671,-87.9365,8.5,2.14,343.4,-9999.0,'1111122,1111122,1111122' 
DISL,ioos:station:DISL:MHPA:1,2012-01-02T09:30:00Z,30.6671,-87.9365,8.5,2.24,327.8,-9999.0,'1111122,1111122,1111122' 
DISL,ioos:station:DISL:MHPA:1,2012-01-02T10:00:00Z,30.6671,-87.9365,8.5,2.46,338.1,-9999.0,'1111122,1111122,1111122' 
DISL,ioos:station:DISL:MHPA:1,2012-01-02T10:30:00Z,30.6671,-87.9365,8.5,2.54,340.5,-9999.0,'1111122,1111122,1111122' 
DISL,ioos:station:DISL:MHPA:1,2012-01-02T11:00:00Z,30.6671,-87.9365,8.5,2.87,341.7,-9999.0,'1111122,1111122,1111122' 
DISL,ioos:station:DISL:MHPA:1,2012-01-02T11:30:00Z,30.6671,-87.9365,8.5,3.71,352.4,-9999.0,'1111122,1111122,1111122' 
DISL,ioos:station:DISL:MHPA:1,2012-01-02T12:00:00Z,30.6671,-87.9365,8.5,3.59,342.3,-9999.0,'1111122,1111122,1111122' 
DISL,ioos:station:DISL:MHPA:1,2012-01-02T12:30:00Z,30.6671,-87.9365,8.5,3.9,345.2,-9999.0,'1111122,1111122,1111122' 
DISL,ioos:station:DISL:MHPA:1,2012-01-02T13:00:00Z,30.6671,-87.9365,8.5,3.28,340.4,-9999.0,'1111122,1111122,1111122' 
DISL,ioos:station:DISL:MHPA:1,2012-01-02T13:30:00Z,30.6671,-87.9365,8.5,4.52,343.8,-9999.0,'1111122,1111122,1111122' 
DISL,ioos:station:DISL:MHPA:1,2012-01-02T14:00:00Z,30.6671,-87.9365,8.5,3.71,342.7,-9999.0,'1111122,1111122,1111122' 
DISL,ioos:station:DISL:MHPA:1,2012-01-02T14:30:00Z,30.6671,-87.9365,8.5,4.56,347.7,-9999.0,'1111122,1111122,1111122' 
DISL,ioos:station:DISL:MHPA:1,2012-01-02T15:00:00Z,30.6671,-87.9365,8.5,5.62,343.0,-9999.0,'1111122,1111122,1111122' 
DISL,ioos:station:DISL:MHPA:1,2012-01-02T15:30:00Z,30.6671,-87.9365,8.5,5.8,341.6,-9999.0,'1111122,1111122,1111122' 
DISL,ioos:station:DISL:MHPA:1,2012-01-02T16:00:00Z,30.6671,-87.9365,8.5,6.5,341.7,-9999.0,'1111122,1111122,1111122' 
DISL,ioos:station:DISL:MHPA:1,2012-01-02T16:30:00Z,30.6671,-87.9365,8.5,6.15,346.7,-9999.0,'1111122,1111122,1111122' 
DISL,ioos:station:DISL:MHPA:1,2012-01-02T17:00:00Z,30.6671,-87.9365,8.5,7.46,338.5,-9999.0,'1111122,1111122,1111122' 
DISL,ioos:station:DISL:MHPA:1,2012-01-02T17:30:00Z,30.6671,-87.9365,8.5,6.15,339.2,-9999.0,'1111122,1111122,1111122' 
DISL,ioos:station:DISL:MHPA:1,2012-01-02T18:00:00Z,30.6671,-87.9365,8.5,5.5,344.9,-9999.0,'1111122,1111122,1111122' 
DISL,ioos:station:DISL:MHPA:1,2012-01-02T18:30:00Z,30.6671,-87.9365,8.5,5.19,340.6,-9999.0,'1111122,1111122,1111122' 
DISL,ioos:station:DISL:MHPA:1,2012-01-02T19:00:00Z,30.6671,-87.9365,8.5,7.31,326.7,-9999.0,'1111122,1111122,1111122' 
DISL,ioos:station:DISL:MHPA:1,2012-01-02T19:30:00Z,30.6671,-87.9365,8.5,5.71,321.2,-9999.0,'1111122,1111122,1111122' 
DISL,ioos:station:DISL:MHPA:1,2012-01-02T20:00:00Z,30.6671,-87.9365,8.5,5.84,321.1,-9999.0,'1111122,1111122,1111122' 
DISL,ioos:station:DISL:MHPA:1,2012-01-02T20:30:00Z,30.6671,-87.9365,8.5,5.33,320.4,-9999.0,'1111122,1111122,1111122' 
DISL,ioos:station:DISL:MHPA:1,2012-01-02T21:00:00Z,30.6671,-87.9365,8.5,5.1,306.7,-9999.0,'1111122,1111122,1111122' 
DISL,ioos:station:DISL:MHPA:1,2012-01-02T21:30:00Z,30.6671,-87.9365,8.5,3.93,316.1,-9999.0,'1111122,1111122,1111122' 
DISL,ioos:station:DISL:MHPA:1,2012-01-02T22:00:00Z,30.6671,-87.9365,8.5,4.37,294.7,-9999.0,'1111122,1111122,1111122' 
DISL,ioos:station:DISL:MHPA:1,2012-01-02T22:30:00Z,30.6671,-87.9365,8.5,5.27,289.7,-9999.0,'1111122,1111122,1111122' 
DISL,ioos:station:DISL:MHPA:1,2012-01-02T23:00:00Z,30.6671,-87.9365,8.5,4.38,294.5,-9999.0,'1111122,1111122,1111122' 
DISL,ioos:station:DISL:MHPA:1,2012-01-02T23:30:00Z,30.6671,-87.9365,8.5,4.31,295.3,-9999.0,'1111122,1111122,1111122' 
DISL,ioos:station:DISL:MHPA:1,2012-01-03T00:00:00Z,30.6671,-87.9365,8.5,6.23,302.2,-9999.0,'1111122,1111122,1111122' 
DISL,ioos:station:DISL:MHPA:1,2012-01-03T00:30:00Z,30.6671,-87.9365,8.5,4.85,310.1,-9999.0,'1111122,1111122,1111122' 
DISL,ioos:station:DISL:MHPA:1,2012-01-03T01:00:00Z,30.6671,-87.9365,8.5,6.99,305.9,-9999.0,'1111122,1111122,1111122' 
DISL,ioos:station:DISL:MHPA:1,2012-01-03T01:30:00Z,30.6671,-87.9365,8.5,7.06,313.1,-9999.0,'1111122,1111122,1111122' 
DISL,ioos:station:DISL:MHPA:1,2012-01-03T02:00:00Z,30.6671,-87.9365,8.5,4.95,314.6,-9999.0,'1111122,1111122,1111122' 
DISL,ioos:station:DISL:MHPA:1,2012-01-03T02:30:00Z,30.6671,-87.9365,8.5,5.34,321.2,-9999.0,'1111122,1111122,1111122' 
DISL,ioos:station:DISL:MHPA:1,2012-01-03T03:00:00Z,30.6671,-87.9365,8.5,6.83,328.2,-9999.0,'1111122,1111122,1111122' 
DISL,ioos:station:DISL:MHPA:1,2012-01-03T03:30:00Z,30.6671,-87.9365,8.5,6.67,330.3,-9999.0,'1111122,1111122,1111122' 
DISL,ioos:station:DISL:MHPA:1,2012-01-03T04:00:00Z,30.6671,-87.9365,8.5,4.69,329.7,-9999.0,'1111122,1111122,1111122' 
DISL,ioos:station:DISL:MHPA:1,2012-01-03T04:30:00Z,30.6671,-87.9365,8.5,4.26,333.2,-9999.0,'1111122,1111122,1111122' 
DISL,ioos:station:DISL:MHPA:1,2012-01-03T05:00:00Z,30.6671,-87.9365,8.5,4.73,329.4,-9999.0,'1111122,1111122,1111122' 
DISL,ioos:station:DISL:MHPA:1,2012-01-03T05:30:00Z,30.6671,-87.9365,8.5,4.47,324.2,-9999.0,'1111122,1111122,1111122' 
DISL,ioos:station:DISL:MHPA:1,2012-01-03T06:00:00Z,30.6671,-87.9365,8.5,5.27,321.0,-9999.0,'1111122,1111122,1111122' 
DISL,ioos:station:DISL:MHPA:1,2012-01-03T06:30:00Z,30.6671,-87.9365,8.5,5.29,331.6,-9999.0,'1111122,1111122,1111122' 
DISL,ioos:station:DISL:MHPA:1,2012-01-03T07:00:00Z,30.6671,-87.9365,8.5,4.07,318.2,-9999.0,'1111122,1111122,1111122' 
DISL,ioos:station:DISL:MHPA:1,2012-01-03T07:30:00Z,30.6671,-87.9365,8.5,4.24,324.9,-9999.0,'1111122,1111122,1111122' 
DISL,ioos:station:DISL:MHPA:1,2012-01-03T08:00:00Z,30.6671,-87.9365,8.5,3.72,327.8,-9999.0,'1111122,1111122,1111122' 
DISL,ioos:station:DISL:MHPA:1,2012-01-03T08:30:00Z,30.6671,-87.9365,8.5,4.2,326.0,-9999.0,'1111122,1111122,1111122' 
DISL,ioos:station:DISL:MHPA:1,2012-01-03T09:00:00Z,30.6671,-87.9365,8.5,3.79,333.0,-9999.0,'1111122,1111122,1111122' 
DISL,ioos:station:DISL:MHPA:1,2012-01-03T09:30:00Z,30.6671,-87.9365,8.5,4.31,332.4,-9999.0,'1111122,1111122,1111122' 
DISL,ioos:station:DISL:MHPA:1,2012-01-03T10:00:00Z,30.6671,-87.9365,8.5,3.94,333.9,-9999.0,'1111122,1111122,1111122' 
DISL,ioos:station:DISL:MHPA:1,2012-01-03T10:30:00Z,30.6671,-87.9365,8.5,3.56,343.8,-9999.0,'1111122,1111122,1111122' 
DISL,ioos:station:DISL:MHPA:1,2012-01-03T11:00:00Z,30.6671,-87.9365,8.5,2.94,340.2,-9999.0,'1111122,1111122,1111122' 
DISL,ioos:station:DISL:MHPA:1,2012-01-03T11:30:00Z,30.6671,-87.9365,8.5,3.01,343.8,-9999.0,'1111122,1111122,1111122' 
DISL,ioos:station:DISL:MHPA:1,2012-01-03T12:00:00Z,30.6671,-87.9365,8.5,3.13,347.7,-9999.0,'1111122,1111122,1111122' 
DISL,ioos:station:DISL:MHPA:1,2012-01-03T12:30:00Z,30.6671,-87.9365,8.5,3.17,345.5,-9999.0,'1111122,1111122,1111122' 
DISL,ioos:station:DISL:MHPA:1,2012-01-03T13:00:00Z,30.6671,-87.9365,8.5,3.48,347.2,-9999.0,'1111122,1111122,1111122' 
DISL,ioos:station:DISL:MHPA:1,2012-01-03T13:30:00Z,30.6671,-87.9365,8.5,3.1,340.3,-9999.0,'1111122,1111122,1111122' 
DISL,ioos:station:DISL:MHPA:1,2012-01-03T14:00:00Z,30.6671,-87.9365,8.5,3.9,343.8,-9999.0,'1111122,1111122,1111122' 
DISL,ioos:station:DISL:MHPA:1,2012-01-03T14:30:00Z,30.6671,-87.9365,8.5,4.29,355.5,-9999.0,'1111122,1111122,1111122' 
DISL,ioos:station:DISL:MHPA:1,2012-01-03T15:00:00Z,30.6671,-87.9365,8.5,5.65,356.6,-9999.0,'1111122,1111122,1111122' 
DISL,ioos:station:DISL:MHPA:1,2012-01-03T15:30:00Z,30.6671,-87.9365,8.5,6.16,349.0,-9999.0,'1111122,1111122,1111122' 
DISL,ioos:station:DISL:MHPA:1,2012-01-03T16:00:00Z,30.6671,-87.9365,8.5,5.14,358.7,-9999.0,'1111122,1111122,1111122' 
DISL,ioos:station:DISL:MHPA:1,2012-01-03T16:30:00Z,30.6671,-87.9365,8.5,4.51,344.0,-9999.0,'1111122,1111122,1111122' 
DISL,ioos:station:DISL:MHPA:1,2012-01-03T17:00:00Z,30.6671,-87.9365,8.5,4.73,356.2,-9999.0,'1111122,1111122,1111122' 
DISL,ioos:station:DISL:MHPA:1,2012-01-03T17:30:00Z,30.6671,-87.9365,8.5,4.4,339.5,-9999.0,'1111122,1111122,1111122' 
DISL,ioos:station:DISL:MHPA:1,2012-01-03T18:00:00Z,30.6671,-87.9365,8.5,3.79,349.2,-9999.0,'1111122,1111122,1111122' 
DISL,ioos:station:DISL:MHPA:1,2012-01-03T18:30:00Z,30.6671,-87.9365,8.5,4.4,359.1,-9999.0,'1111122,1111122,1111122' 
DISL,ioos:station:DISL:MHPA:1,2012-01-03T19:00:00Z,30.6671,-87.9365,8.5,4.73,355.7,-9999.0,'1111122,1111122,1111122' 
DISL,ioos:station:DISL:MHPA:1,2012-01-03T19:30:00Z,30.6671,-87.9365,8.5,5.48,9.37,-9999.0,'1111122,1111122,1111122' 
DISL,ioos:station:DISL:MHPA:1,2012-01-03T20:00:00Z,30.6671,-87.9365,8.5,4.97,356.5,-9999.0,'1111122,1111122,1111122' 
DISL,ioos:station:DISL:MHPA:1,2012-01-03T20:30:00Z,30.6671,-87.9365,8.5,4.35,357.9,-9999.0,'1111122,1111122,1111122' 
DISL,ioos:station:DISL:MHPA:1,2012-01-03T21:00:00Z,30.6671,-87.9365,8.5,3.34,6.326,-9999.0,'1111122,1111122,1111122' 
DISL,ioos:station:DISL:MHPA:1,2012-01-03T21:30:00Z,30.6671,-87.9365,8.5,3.1,354.4,-9999.0,'1111122,1111122,1111122' 
DISL,ioos:station:DISL:MHPA:1,2012-01-03T22:00:00Z,30.6671,-87.9365,8.5,2.75,355.2,-9999.0,'1111122,1111122,1111122' 
DISL,ioos:station:DISL:MHPA:1,2012-01-03T22:30:00Z,30.6671,-87.9365,8.5,2.61,358.8,-9999.0,'1111122,1111122,1111122' 
DISL,ioos:station:DISL:MHPA:1,2012-01-03T23:00:00Z,30.6671,-87.9365,8.5,2.3,354.5,-9999.0,'1111122,1111122,1111122' 
DISL,ioos:station:DISL:MHPA:1,2012-01-03T23:30:00Z,30.6671,-87.9365,8.5,1.83,354.3,-9999.0,'1111122,1111122,1111122' 
DISL,ioos:station:DISL:MHPA:1,2012-01-04T00:00:00Z,30.6671,-87.9365,8.5,1.52,27.08,-9999.0,'1111122,1111122,1111122' 
DISL,ioos:station:DISL:MHPA:1,2012-01-04T00:30:00Z,30.6671,-87.9365,8.5,0.9,64.67,-9999.0,'1111122,1111122,1111122' 
DISL,ioos:station:DISL:MHPA:1,2012-01-04T01:00:00Z,30.6671,-87.9365,8.5,0.7,69.78,-9999.0,'1111122,1111122,1111122' 
DISL,ioos:station:DISL:MHPA:1,2012-01-04T01:30:00Z,30.6671,-87.9365,8.5,0.61,75.5,-9999.0,'1111122,1111122,1111122' 
DISL,ioos:station:DISL:MHPA:1,2012-01-04T02:00:00Z,30.6671,-87.9365,8.5,0.84,76.0,-9999.0,'1111122,1111122,1111122' 
DISL,ioos:station:DISL:MHPA:1,2012-01-04T02:30:00Z,30.6671,-87.9365,8.5,0.23,113.6,-9999.0,'1111122,1111122,1111122' 
DISL,ioos:station:DISL:MHPA:1,2012-01-04T03:00:00Z,30.6671,-87.9365,8.5,0.13,100.7,-9999.0,'1111122,1111122,1111122' 
DISL,ioos:station:DISL:MHPA:1,2012-01-04T03:30:00Z,30.6671,-87.9365,8.5,0.41,66.55,-9999.0,'1111122,1111122,1111122' 
DISL,ioos:station:DISL:MHPA:1,2012-01-04T04:00:00Z,30.6671,-87.9365,8.5,0.07,70.1,-9999.0,'1111122,1111122,1111122' 
DISL,ioos:station:DISL:MHPA:1,2012-01-04T04:30:00Z,30.6671,-87.9365,8.5,0.47,50.28,-9999.0,'1111122,1111122,1111122' 
DISL,ioos:station:DISL:MHPA:1,2012-01-04T05:00:00Z,30.6671,-87.9365,8.5,0.87,48.41,-9999.0,'1111122,1111122,1111122' 
DISL,ioos:station:DISL:MHPA:1,2012-01-04T05:30:00Z,30.6671,-87.9365,8.5,0.25,78.8,-9999.0,'1111122,1111122,1111122' 
DISL,ioos:station:DISL:MHPA:1,2012-01-04T06:00:00Z,30.6671,-87.9365,8.5,0.09,71.2,-9999.0,'1111122,1111122,1111122' 
DISL,ioos:station:DISL:MHPA:1,2012-01-04T06:30:00Z,30.6671,-87.9365,8.5,0.34,357.1,-9999.0,'1111122,1111122,1111122' 
DISL,ioos:station:DISL:MHPA:1,2012-01-04T07:00:00Z,30.6671,-87.9365,8.5,0.09,93.3,-9999.0,'1111122,1111122,1111122' 
DISL,ioos:station:DISL:MHPA:1,2012-01-04T07:30:00Z,30.6671,-87.9365,8.5,0.31,68.92,-9999.0,'1111122,1111122,1111122' 
DISL,ioos:station:DISL:MHPA:1,2012-01-04T08:00:00Z,30.6671,-87.9365,8.5,1.29,98.1,-9999.0,'1111122,1111122,1111122' 
DISL,ioos:station:DISL:MHPA:1,2012-01-04T08:30:00Z,30.6671,-87.9365,8.5,2.24,102.4,-9999.0,'1111122,1111122,1111122' 
DISL,ioos:station:DISL:MHPA:1,2012-01-04T09:00:00Z,30.6671,-87.9365,8.5,2.45,98.7,-9999.0,'1111122,1111122,1111122' 
DISL,ioos:station:DISL:MHPA:1,2012-01-04T09:30:00Z,30.6671,-87.9365,8.5,2.82,103.6,-9999.0,'1111122,1111122,1111122' 
DISL,ioos:station:DISL:MHPA:1,2012-01-04T10:00:00Z,30.6671,-87.9365,8.5,2.38,105.7,-9999.0,'1111122,1111122,1111122' 
DISL,ioos:station:DISL:MHPA:1,2012-01-04T10:30:00Z,30.6671,-87.9365,8.5,2.92,100.5,-9999.0,'1111122,1111122,1111122' 
DISL,ioos:station:DISL:MHPA:1,2012-01-04T11:00:00Z,30.6671,-87.9365,8.5,1.76,97.4,-9999.0,'1111122,1111122,1111122' 
DISL,ioos:station:DISL:MHPA:1,2012-01-04T11:30:00Z,30.6671,-87.9365,8.5,2.36,85.2,-9999.0,'1111122,1111122,1111122' 
DISL,ioos:station:DISL:MHPA:1,2012-01-04T12:00:00Z,30.6671,-87.9365,8.5,2.07,83.9,-9999.0,'1111122,1111122,1111122' 
DISL,ioos:station:DISL:MHPA:1,2012-01-04T12:30:00Z,30.6671,-87.9365,8.5,2.57,105.0,-9999.0,'1111122,1111122,1111122' 
DISL,ioos:station:DISL:MHPA:1,2012-01-04T13:00:00Z,30.6671,-87.9365,8.5,3.18,97.4,-9999.0,'1111122,1111122,1111122' 
DISL,ioos:station:DISL:MHPA:1,2012-01-04T13:30:00Z,30.6671,-87.9365,8.5,3.08,104.7,-9999.0,'1111122,1111122,1111122' 
DISL,ioos:station:DISL:MHPA:1,2012-01-04T14:00:00Z,30.6671,-87.9365,8.5,3.07,102.1,-9999.0,'1111122,1111122,1111122' 
DISL,ioos:station:DISL:MHPA:1,2012-01-04T14:30:00Z,30.6671,-87.9365,8.5,2.73,100.3,-9999.0,'1111122,1111122,1111122' 
DISL,ioos:station:DISL:MHPA:1,2012-01-04T15:00:00Z,30.6671,-87.9365,8.5,0.63,61.48,-9999.0,'1111122,1111122,1111122' 
DISL,ioos:station:DISL:MHPA:1,2012-01-04T15:30:00Z,30.6671,-87.9365,8.5,0.52,168.4,-9999.0,'1111122,1111122,1111122' 
DISL,ioos:station:DISL:MHPA:1,2012-01-04T16:00:00Z,30.6671,-87.9365,8.5,1.32,245.3,-9999.0,'1111122,1111122,1111122' 
DISL,ioos:station:DISL:MHPA:1,2012-01-04T16:30:00Z,30.6671,-87.9365,8.5,1.51,238.4,-9999.0,'1111122,1111122,1111122' 
DISL,ioos:station:DISL:MHPA:1,2012-01-04T17:00:00Z,30.6671,-87.9365,8.5,1.72,222.7,-9999.0,'1111122,1111122,1111122' 
DISL,ioos:station:DISL:MHPA:1,2012-01-04T17:30:00Z,30.6671,-87.9365,8.5,2.02,213.3,-9999.0,'1111122,1111122,1111122' 
DISL,ioos:station:DISL:MHPA:1,2012-01-04T18:00:00Z,30.6671,-87.9365,8.5,1.87,217.9,-9999.0,'1111122,1111122,1111122' 
DISL,ioos:station:DISL:MHPA:1,2012-01-04T18:30:00Z,30.6671,-87.9365,8.5,2.32,189.8,-9999.0,'1111122,1111122,1111122' 
DISL,ioos:station:DISL:MHPA:1,2012-01-04T19:00:00Z,30.6671,-87.9365,8.5,3.67,185.1,-9999.0,'1111122,1111122,1111122' 
DISL,ioos:station:DISL:MHPA:1,2012-01-04T19:30:00Z,30.6671,-87.9365,8.5,4.18,175.7,-9999.0,'1111122,1111122,1111122' 
DISL,ioos:station:DISL:MHPA:1,2012-01-04T20:00:00Z,30.6671,-87.9365,8.5,5.21,178.4,-9999.0,'1111122,1111122,1111122' 
DISL,ioos:station:DISL:MHPA:1,2012-01-04T20:30:00Z,30.6671,-87.9365,8.5,5.8,169.7,-9999.0,'1111122,1111122,1111122' 
DISL,ioos:station:DISL:MHPA:1,2012-01-04T21:00:00Z,30.6671,-87.9365,8.5,5.46,170.0,-9999.0,'1111122,1111122,1111122' 
DISL,ioos:station:DISL:MHPA:1,2012-01-04T21:30:00Z,30.6671,-87.9365,8.5,5.8,167.8,-9999.0,'1111122,1111122,1111122' 
DISL,ioos:station:DISL:MHPA:1,2012-01-04T22:00:00Z,30.6671,-87.9365,8.5,5.13,168.6,-9999.0,'1111122,1111122,1111122' 
DISL,ioos:station:DISL:MHPA:1,2012-01-04T22:30:00Z,30.6671,-87.9365,8.5,5.14,171.5,-9999.0,'1111122,1111122,1111122' 
DISL,ioos:station:DISL:MHPA:1,2012-01-04T23:00:00Z,30.6671,-87.9365,8.5,4.93,190.1,-9999.0,'1111122,1111122,1111122' 
DISL,ioos:station:DISL:MHPA:1,2012-01-04T23:30:00Z,30.6671,-87.9365,8.5,4.59,182.5,-9999.0,'1111122,1111122,1111122' 
DISL,ioos:station:DISL:MHPA:1,2012-01-05T00:00:00Z,30.6671,-87.9365,8.5,4.09,187.5,-9999.0,'1111122,1111122,1111122' 
DISL,ioos:station:DISL:MHPA:1,2012-01-05T00:30:00Z,30.6671,-87.9365,8.5,4.01,183.1,-9999.0,'1111122,1111122,1111122' 
DISL,ioos:station:DISL:MHPA:1,2012-01-05T01:00:00Z,30.6671,-87.9365,8.5,3.07,180.5,-9999.0,'1111122,1111122,1111122' 
DISL,ioos:station:DISL:MHPA:1,2012-01-05T01:30:00Z,30.6671,-87.9365,8.5,2.22,183.6,-9999.0,'1111122,1111122,1111122' 
DISL,ioos:station:DISL:MHPA:1,2012-01-05T02:00:00Z,30.6671,-87.9365,8.5,2.01,137.2,-9999.0,'1111122,1111122,1111122' 
DISL,ioos:station:DISL:MHPA:1,2012-01-05T02:30:00Z,30.6671,-87.9365,8.5,1.94,135.7,-9999.0,'1111122,1111122,1111122' 
DISL,ioos:station:DISL:MHPA:1,2012-01-05T03:00:00Z,30.6671,-87.9365,8.5,1.65,167.7,-9999.0,'1111122,1111122,1111122' 
DISL,ioos:station:DISL:MHPA:1,2012-01-05T03:30:00Z,30.6671,-87.9365,8.5,2.26,213.6,-9999.0,'1111122,1111122,1111122' 
DISL,ioos:station:DISL:MHPA:1,2012-01-05T04:00:00Z,30.6671,-87.9365,8.5,1.43,223.8,-9999.0,'1111122,1111122,1111122' 
DISL,ioos:station:DISL:MHPA:1,2012-01-05T04:30:00Z,30.6671,-87.9365,8.5,1.66,234.5,-9999.0,'1111122,1111122,1111122' 
DISL,ioos:station:DISL:MHPA:1,2012-01-05T05:00:00Z,30.6671,-87.9365,8.5,2.22,239.4,-9999.0,'1111122,1111122,1111122' 
DISL,ioos:station:DISL:MHPA:1,2012-01-05T05:30:00Z,30.6671,-87.9365,8.5,0.55,111.4,-9999.0,'1111122,1111122,1111122' 
DISL,ioos:station:DISL:MHPA:1,2012-01-05T06:00:00Z,30.6671,-87.9365,8.5,1.39,252.8,-9999.0,'1111122,1111122,1111122' 
DISL,ioos:station:DISL:MHPA:1,2012-01-05T06:30:00Z,30.6671,-87.9365,8.5,0.57,250.3,-9999.0,'1111122,1111122,1111122' 
DISL,ioos:station:DISL:MHPA:1,2012-01-05T07:00:00Z,30.6671,-87.9365,8.5,0.8,95.2,-9999.0,'1111122,1111122,1111122' 
DISL,ioos:station:DISL:MHPA:1,2012-01-05T07:30:00Z,30.6671,-87.9365,8.5,0.91,169.8,-9999.0,'1111122,1111122,1111122' 
DISL,ioos:station:DISL:MHPA:1,2012-01-05T08:00:00Z,30.6671,-87.9365,8.5,0.77,198.2,-9999.0,'1111122,1111122,1111122' 
DISL,ioos:station:DISL:MHPA:1,2012-01-05T08:30:00Z,30.6671,-87.9365,8.5,0.5,200.8,-9999.0,'1111122,1111122,1111122' 
DISL,ioos:station:DISL:MHPA:1,2012-01-05T09:00:00Z,30.6671,-87.9365,8.5,0.72,104.1,-9999.0,'1111122,1111122,1111122' 
DISL,ioos:station:DISL:MHPA:1,2012-01-05T09:30:00Z,30.6671,-87.9365,8.5,0.46,128.7,-9999.0,'1111122,1111122,1111122' 
DISL,ioos:station:DISL:MHPA:1,2012-01-05T10:00:00Z,30.6671,-87.9365,8.5,0.75,154.7,-9999.0,'1111122,1111122,1111122' 
DISL,ioos:station:DISL:MHPA:1,2012-01-05T10:30:00Z,30.6671,-87.9365,8.5,1.26,146.6,-9999.0,'1111122,1111122,1111122' 
DISL,ioos:station:DISL:MHPA:1,2012-01-05T11:00:00Z,30.6671,-87.9365,8.5,1.36,133.5,-9999.0,'1111122,1111122,1111122' 